Home > Weather > Medellin > Past weeks

Flag for Colombia Weather for the Past 2 Weeks in Medellin, Colombia

Now
57 °F

Fog.


Feels Like: 57 °F
Forecast: 63 / 78 °F
Wind: No wind

Location: Rionegro / J. M. Cordova

Current Time: May 2, 2016 at 1:28:50 AM

Latest Report: May 2, 2016 at 1:00 AM


Visibility: 1 mi

Pressure: 30.29 "Hg (25.40 "Hg at 1479m altitude)

Humidity: 100%

Dew Point: 57 °F

Location of MedellinLocation

Historic Weather in Medellin — Graph

°F

Medellin Temperature Yesterday

Maximum temperature yesterday: 70 °F (at 2:00 PM)
Minimum temperature yesterday: 59 °F (at 2:00 AM)
Average temperature yesterday: 62 °F

High & Low Weather Summary for the Past Weeks

 TemperatureHumidityPressure
High77 °F (Apr 21, 1:00 PM)100% (Apr 19, 2:00 AM)30.39 "Hg (Apr 19, 2:00 AM)
Low55 °F (Apr 23, 2:00 AM)41% (Apr 17, 3:00 PM)30.17 "Hg (Apr 26, 3:00 PM)
Average64 °F82%30.28 "Hg
* Reported Midnight between Apr 16 and Apr 17 — Midnight between May 1 and May 2, Medellin, Weather by CustomWeather, © 2016

Note: Actual official high and low records may vary slightly from our data, if they occured in-between our weather recording intervals... More about our weather records

Advertising

Medellin Weather History for the Previous 24 Hours

Scroll right to see more
 ConditionsComfort  
Time TempWeatherWind HumidityBarometerVisibility
12:00 AM
Mon, May 2
59 °FFog.5 mph94%30.30 "Hg5 mi
11:00 PM
Sun, May 1
59 °FFog.No wind94%30.32 "Hg5 mi
10:00 PM59 °FFog.No wind100%30.31 "HgN/A
9:00 PM59 °FPartly cloudy.No wind94%30.30 "HgN/A
8:00 PM59 °FPartly cloudy.2 mph94%30.29 "HgN/A
7:00 PM61 °FThunderstorms. Partly cloudy.5 mph94%30.27 "Hg6 mi
6:00 PM63 °FThunderstorms. Broken clouds.5 mph88%30.23 "Hg4 mi
5:00 PM64 °FThunderstorms. Partly sunny.12 mph83%30.21 "Hg5 mi
4:00 PM68 °FScattered showers. Broken clouds.5 mph73%30.20 "HgN/A
3:00 PM70 °FBroken clouds.6 mph69%30.22 "HgN/A
2:00 PM70 °FBroken clouds.5 mph69%30.23 "HgN/A
1:00 PM66 °FPartly sunny.2 mph78%30.27 "HgN/A
12:00 PM66 °FMore clouds than sun.5 mph73%30.31 "HgN/A
11:00 AM64 °FMore clouds than sun.5 mph78%30.31 "HgN/A
10:00 AM64 °FMore clouds than sun.6 mph78%30.33 "HgN/A
9:00 AM63 °FLow clouds.3 mph83%30.33 "HgN/A
8:00 AM61 °FDrizzle. Low clouds.3 mph88%30.32 "HgN/A
7:00 AM59 °FOvercast.5 mph94%30.29 "HgN/A
6:00 AM59 °FDrizzle. More clouds than sun.No wind94%30.27 "HgN/A
5:00 AM59 °FMostly cloudy.No wind94%30.26 "HgN/A
4:00 AM59 °FMostly cloudy.No wind94%30.24 "HgN/A
3:00 AM59 °FPartly cloudy.No wind94%30.26 "Hg6 mi
2:00 AM59 °FPartly cloudy.No wind94%30.27 "Hg6 mi
1:00 AM61 °FDrizzle. Mostly cloudy.No wind94%30.29 "Hg6 mi
Weather by CustomWeather, © 2016

See weather overviewHow to use our weather pages